EDW612 LSZH-BKPR

Flight info

Callsign EDW612
Flight time 1h 40m
Altitude 35000
Route DEGES Z2 TUNUM Z204 GEDSO DCT VEKEN/N0474F410 DCT RINAV DCT ARBER ARBER1D
Aircraft A359/H-SABDE2E3GHIJ2J3J4J5M1P2RWXYZ/LB1D1

Departure

Time 2026-04-26 15:37
Airport Zürich Airport (LSZH)

Arrival

Time 2026-04-26 17:18
Airport Priština Adem Jashari International Airport (BKPR)
Time Latitude Longitude Altitude Speed Heading
2026-04-26 15:13 47.46049 8.55529 1406 ft 0 kts
2026-04-26 15:29 47.46027 8.55525 1413 ft 4 kts
2026-04-26 15:29 47.45979 8.55517 1413 ft 4 kts 33°
2026-04-26 15:30 47.45969 8.55451 1413 ft 4 kts 96°
2026-04-26 15:30 47.45971 8.55416 1409 ft 1 kts 96°
2026-04-26 15:33 47.45971 8.55424 1409 ft 7 kts 96°
2026-04-26 15:33 47.45956 8.55530 1410 ft 9 kts 123°
2026-04-26 15:34 47.45908 8.55557 1412 ft 7 kts 168°
2026-04-26 15:34 47.45871 8.55607 1420 ft 10 kts 111°
2026-04-26 15:34 47.45857 8.55745 1415 ft 15 kts 98°
2026-04-26 15:34 47.45845 8.55921 1416 ft 20 kts 95°
2026-04-26 15:35 47.45829 8.56147 1421 ft 24 kts 96°
2026-04-26 15:35 47.45812 8.56387 1425 ft 23 kts 95°
2026-04-26 15:35 47.45796 8.56625 1425 ft 23 kts 96°
2026-04-26 15:35 47.45778 8.56865 1428 ft 23 kts 96°
2026-04-26 15:36 47.45730 8.57023 1431 ft 14 kts 161°
2026-04-26 15:36 47.45672 8.57006 1431 ft 2 kts 242°
2026-04-26 15:36 47.45667 8.56943 1430 ft 11 kts 272°
2026-04-26 15:36 47.45676 8.56780 1426 ft 31 kts 275°
2026-04-26 15:37 47.45729 8.56046 1420 ft 113 kts 275°
2026-04-26 15:37 47.45835 8.54531 1443 ft 176 kts 275°
2026-04-26 15:37 47.45964 8.52685 2089 ft 189 kts 275°
2026-04-26 15:37 47.46094 8.50596 2597 ft 225 kts 277°
2026-04-26 15:38 47.46145 8.48057 3015 ft 265 kts 269°
2026-04-26 15:38 47.45772 8.45406 3671 ft 257 kts 248°
2026-04-26 15:38 47.44847 8.43115 4369 ft 263 kts 233°
2026-04-26 15:38 47.43807 8.40971 5495 ft 258 kts 234°
2026-04-26 15:39 47.42792 8.38867 6753 ft 241 kts 232°
2026-04-26 15:39 47.41573 8.37320 8002 ft 227 kts 205°
2026-04-26 15:39 47.40053 8.36955 9021 ft 225 kts 169°
2026-04-26 15:39 47.39547 8.37179 9329 ft 226 kts 157°
2026-04-26 15:40 47.37930 8.40305 10407 ft 252 kts 114°
2026-04-26 15:40 47.37479 8.42927 10777 ft 277 kts 95°
2026-04-26 15:40 47.37441 8.45896 11188 ft 302 kts 88°
2026-04-26 15:40 47.37554 8.49117 11582 ft 326 kts 86°
2026-04-26 15:41 47.37721 8.52566 12075 ft 345 kts 85°
2026-04-26 15:41 47.37909 8.56132 12866 ft 353 kts 85°
2026-04-26 15:41 47.38107 8.59782 13645 ft 362 kts 85°
2026-04-26 15:41 47.38312 8.63507 14475 ft 366 kts 84°
2026-04-26 15:42 47.38516 8.67272 15250 ft 370 kts 85°
2026-04-26 15:42 47.38718 8.71028 15999 ft 375 kts 84°
2026-04-26 15:42 47.38926 8.74892 16777 ft 380 kts 84°
2026-04-26 15:42 47.39137 8.78812 17531 ft 385 kts 84°
2026-04-26 15:43 47.39348 8.82780 18300 ft 391 kts 84°
2026-04-26 15:43 47.39553 8.86804 18998 ft 396 kts 84°
2026-04-26 15:43 47.39969 8.94934 20405 ft 405 kts 84°
2026-04-26 15:44 47.40183 8.99097 21090 ft 410 kts 84°
2026-04-26 15:44 47.40618 9.07596 22486 ft 419 kts 85°
2026-04-26 15:44 47.40837 9.11906 23176 ft 424 kts 85°
2026-04-26 15:45 47.41355 9.20662 24396 ft 432 kts 81°
2026-04-26 15:45 47.41870 9.25051 24989 ft 436 kts 78°
2026-04-26 15:46 47.43220 9.33850 26164 ft 443 kts 76°
2026-04-26 15:46 47.43939 9.38299 26727 ft 447 kts 76°
2026-04-26 15:46 47.44412 9.41260 27120 ft 449 kts 76°
2026-04-26 15:46 47.44883 9.44247 27495 ft 452 kts 76°
2026-04-26 15:47 47.45822 9.50335 28256 ft 456 kts 77°
2026-04-26 15:47 47.47047 9.61156 29506 ft 465 kts 90°
2026-04-26 15:47 47.46973 9.65930 30080 ft 466 kts 94°
2026-04-26 15:48 47.46778 9.70722 30580 ft 468 kts 95°
2026-04-26 15:48 47.46609 9.73979 30847 ft 471 kts 96°
2026-04-26 15:48 47.46329 9.78813 31217 ft 475 kts 96°
2026-04-26 15:48 47.46032 9.83703 31596 ft 479 kts 96°
2026-04-26 15:49 47.45735 9.88620 31994 ft 482 kts 96°
2026-04-26 15:49 47.45441 9.93569 32373 ft 486 kts 96°
2026-04-26 15:49 47.45148 9.98564 32745 ft 490 kts 96°
2026-04-26 15:49 47.44857 10.03591 33101 ft 493 kts 95°
2026-04-26 15:50 47.44565 10.08648 33422 ft 497 kts 95°
2026-04-26 15:50 47.44269 10.13761 33728 ft 501 kts 95°
2026-04-26 15:50 47.43859 10.18875 34068 ft 503 kts 101°
2026-04-26 15:50 47.43248 10.23971 34363 ft 506 kts 101°
2026-04-26 15:51 47.42590 10.29079 34690 ft 507 kts 102°
2026-04-26 15:51 47.41904 10.34197 35040 ft 508 kts 102°
2026-04-26 15:51 47.41207 10.39307 35190 ft 504 kts 102°
2026-04-26 15:51 47.40530 10.44228 35200 ft 487 kts 102°
2026-04-26 15:52 47.39869 10.49049 35193 ft 473 kts 102°
2026-04-26 15:52 47.38574 10.58462 35193 ft 467 kts 102°
2026-04-26 15:53 47.37268 10.67844 35193 ft 467 kts 102°
2026-04-26 15:53 47.35956 10.77235 35179 ft 467 kts 102°
2026-04-26 15:54 47.34638 10.86621 35162 ft 468 kts 102°
2026-04-26 15:54 47.33314 10.96002 35161 ft 467 kts 102°
2026-04-26 15:55 47.31980 11.05392 35151 ft 467 kts 103°
2026-04-26 15:55 47.30640 11.14760 35149 ft 467 kts 103°
2026-04-26 15:56 47.29293 11.24126 35134 ft 467 kts 103°
2026-04-26 15:56 47.27937 11.33493 35131 ft 468 kts 102°
2026-04-26 15:57 47.26571 11.42872 35127 ft 469 kts 103°
2026-04-26 15:57 47.24565 11.51951 35132 ft 466 kts 119°
2026-04-26 15:58 47.21111 11.59977 35113 ft 464 kts 126°
2026-04-26 15:58 47.17399 11.67718 35128 ft 462 kts 127°
2026-04-26 15:59 47.13664 11.75403 35129 ft 462 kts 127°
2026-04-26 15:59 47.09943 11.83099 35122 ft 461 kts 127°
2026-04-26 16:00 47.06672 11.91193 35118 ft 463 kts 118°
2026-04-26 16:00 47.03793 11.99664 35128 ft 464 kts 117°
2026-04-26 16:01 47.00968 12.08174 35124 ft 464 kts 117°
2026-04-26 16:01 46.98153 12.16610 35109 ft 464 kts 117°
2026-04-26 16:02 46.95302 12.25082 35133 ft 464 kts 117°
2026-04-26 16:02 46.92442 12.33540 35124 ft 464 kts 117°
2026-04-26 16:03 46.89577 12.41982 35139 ft 463 kts 117°
2026-04-26 16:03 46.86708 12.50407 35136 ft 462 kts 117°
2026-04-26 16:04 46.83839 12.58808 35125 ft 463 kts 117°
2026-04-26 16:04 46.80961 12.67210 35108 ft 463 kts 117°
2026-04-26 16:05 46.78078 12.75600 35101 ft 462 kts 117°
2026-04-26 16:05 46.75198 12.83952 35103 ft 460 kts 117°
2026-04-26 16:06 46.72317 12.92284 35103 ft 460 kts 118°
2026-04-26 16:06 46.69428 13.00607 35099 ft 460 kts 118°
2026-04-26 16:07 46.66531 13.08928 35093 ft 460 kts 118°
2026-04-26 16:07 46.63635 13.17225 35096 ft 460 kts 118°
2026-04-26 16:08 46.60731 13.25515 35081 ft 459 kts 118°
2026-04-26 16:08 46.57826 13.33780 35089 ft 459 kts 117°
2026-04-26 16:09 46.54178 13.41334 35085 ft 457 kts 132°
2026-04-26 16:09 46.49931 13.48194 35091 ft 456 kts 134°
2026-04-26 16:10 46.45600 13.54932 35302 ft 459 kts 135°
2026-04-26 16:10 46.43406 13.58334 35464 ft 465 kts 135°
2026-04-26 16:10 46.41186 13.61783 35638 ft 471 kts 134°
2026-04-26 16:10 46.38944 13.65276 35826 ft 476 kts 134°
2026-04-26 16:11 46.36679 13.68807 35993 ft 481 kts 134°
2026-04-26 16:11 46.34389 13.72376 36134 ft 486 kts 134°
2026-04-26 16:11 46.32081 13.75971 36371 ft 489 kts 134°
2026-04-26 16:11 46.29760 13.79583 36673 ft 490 kts 134°
2026-04-26 16:12 46.27440 13.83189 36991 ft 491 kts 134°
2026-04-26 16:12 46.25114 13.86797 37324 ft 490 kts 135°
2026-04-26 16:12 46.20498 13.93943 37971 ft 489 kts 135°
2026-04-26 16:13 46.18147 13.97573 38279 ft 489 kts 135°
2026-04-26 16:13 46.15856 14.01106 38624 ft 488 kts 135°
2026-04-26 16:13 46.13542 14.04671 38908 ft 487 kts 135°
2026-04-26 16:13 46.11225 14.08237 39047 ft 488 kts 135°
2026-04-26 16:14 46.06594 14.15349 39077 ft 486 kts 135°
2026-04-26 16:15 45.99654 14.25972 39078 ft 485 kts 135°
2026-04-26 16:15 45.95023 14.33035 39077 ft 486 kts 135°
2026-04-26 16:16 45.88058 14.43623 39076 ft 486 kts 135°
2026-04-26 16:16 45.83407 14.50672 39077 ft 486 kts 135°
2026-04-26 16:17 45.78750 14.57711 39081 ft 487 kts 135°
2026-04-26 16:17 45.74089 14.64737 39080 ft 487 kts 135°
2026-04-26 16:18 45.67081 14.75269 39088 ft 487 kts 135°
2026-04-26 16:19 45.60058 14.85780 39091 ft 488 kts 135°
2026-04-26 16:20 45.53037 14.96251 39093 ft 486 kts 135°
2026-04-26 16:20 45.46020 15.06672 39095 ft 486 kts 135°
2026-04-26 16:21 45.41331 15.13613 39096 ft 486 kts 135°
2026-04-26 16:21 45.36644 15.20549 39094 ft 486 kts 135°
2026-04-26 16:22 45.31952 15.27473 39094 ft 486 kts 135°
2026-04-26 16:22 45.27263 15.34367 39092 ft 485 kts 135°
2026-04-26 16:23 45.22569 15.41245 39094 ft 485 kts 135°
2026-04-26 16:23 45.17871 15.48113 39094 ft 485 kts 135°
2026-04-26 16:24 45.13168 15.54970 39089 ft 485 kts 135°
2026-04-26 16:24 45.08455 15.61837 39087 ft 487 kts 135°
2026-04-26 16:25 45.03724 15.68700 39096 ft 487 kts 135°
2026-04-26 16:25 44.98986 15.75549 39098 ft 487 kts 135°
2026-04-26 16:26 44.95046 15.81235 39099 ft 487 kts 135°
2026-04-26 16:26 44.89534 15.89174 39101 ft 488 kts 135°
2026-04-26 16:27 44.84778 15.96004 39102 ft 488 kts 135°
2026-04-26 16:27 44.80026 16.02814 39100 ft 487 kts 135°
2026-04-26 16:28 44.75272 16.09608 39097 ft 487 kts 135°
2026-04-26 16:28 44.70516 16.16389 39096 ft 487 kts 135°
2026-04-26 16:29 44.65752 16.23163 39098 ft 487 kts 135°
2026-04-26 16:29 44.60982 16.29930 39096 ft 487 kts 135°
2026-04-26 16:30 44.56207 16.36688 39095 ft 487 kts 135°
2026-04-26 16:30 44.51431 16.43429 39091 ft 487 kts 135°
2026-04-26 16:31 44.46652 16.50158 39098 ft 487 kts 135°
2026-04-26 16:31 44.41872 16.56872 39097 ft 487 kts 135°
2026-04-26 16:32 44.37892 16.62449 39098 ft 487 kts 135°
2026-04-26 16:32 44.32290 16.70281 39110 ft 487 kts 135°
2026-04-26 16:33 44.27503 16.76956 39107 ft 486 kts 135°
2026-04-26 16:33 44.22712 16.83620 39107 ft 486 kts 135°
2026-04-26 16:34 44.18724 16.89154 39090 ft 486 kts 136°
2026-04-26 16:34 44.13927 16.95798 39095 ft 486 kts 136°
2026-04-26 16:35 44.09125 17.02431 39107 ft 487 kts 136°
2026-04-26 16:35 44.04316 17.09058 39106 ft 486 kts 136°
2026-04-26 16:36 43.99510 17.15663 39110 ft 486 kts 136°
2026-04-26 16:36 43.94706 17.22252 39112 ft 486 kts 136°
2026-04-26 16:37 43.89905 17.28836 39401 ft 483 kts 135°
2026-04-26 16:37 43.87538 17.32122 39664 ft 482 kts 136°
2026-04-26 16:37 43.85141 17.35401 39723 ft 486 kts 136°
2026-04-26 16:38 43.82721 17.38681 39880 ft 488 kts 136°
2026-04-26 16:38 43.80287 17.41970 40052 ft 489 kts 136°
2026-04-26 16:38 43.77853 17.45258 40245 ft 489 kts 136°
2026-04-26 16:38 43.75414 17.48556 40420 ft 490 kts 136°
2026-04-26 16:39 43.72980 17.51849 40602 ft 491 kts 136°
2026-04-26 16:39 43.70542 17.55150 40779 ft 491 kts 136°
2026-04-26 16:39 43.68097 17.58456 40960 ft 491 kts 136°
2026-04-26 16:39 43.65649 17.61764 41081 ft 494 kts 136°
2026-04-26 16:40 43.60727 17.68402 41068 ft 501 kts 135°
2026-04-26 16:40 43.55755 17.75089 41086 ft 496 kts 135°
2026-04-26 16:41 43.50824 17.81709 41050 ft 494 kts 135°
2026-04-26 16:41 43.45898 17.88304 41039 ft 494 kts 135°
2026-04-26 16:42 43.40965 17.94892 41033 ft 494 kts 135°
2026-04-26 16:42 43.36026 18.01474 41032 ft 494 kts 135°
2026-04-26 16:43 43.31085 18.08040 41039 ft 494 kts 135°
2026-04-26 16:43 43.26146 18.14590 41049 ft 494 kts 135°
2026-04-26 16:44 43.21196 18.21139 41058 ft 494 kts 135°
2026-04-26 16:44 43.16245 18.27672 41074 ft 494 kts 135°
2026-04-26 16:45 43.11294 18.34191 41072 ft 494 kts 135°
2026-04-26 16:45 43.06349 18.40694 41076 ft 493 kts 135°
2026-04-26 16:46 43.01396 18.47184 41075 ft 495 kts 137°
2026-04-26 16:46 42.96379 18.53738 41081 ft 504 kts 137°
2026-04-26 16:47 42.91302 18.60358 41074 ft 504 kts 137°
2026-04-26 16:47 42.86224 18.66965 41078 ft 504 kts 137°
2026-04-26 16:48 42.81180 18.73512 41070 ft 504 kts 137°
2026-04-26 16:48 42.76098 18.80094 41073 ft 504 kts 137°
2026-04-26 16:49 42.71005 18.86672 41058 ft 505 kts 137°
2026-04-26 16:49 42.65915 18.93231 41057 ft 505 kts 137°
2026-04-26 16:50 42.60819 18.99784 41039 ft 505 kts 137°
2026-04-26 16:50 42.55711 19.06337 41047 ft 505 kts 137°
2026-04-26 16:51 42.50600 19.12876 41044 ft 505 kts 137°
2026-04-26 16:51 42.45485 19.19406 41046 ft 506 kts 137°
2026-04-26 16:52 42.41190 19.24876 41000 ft 506 kts 137°
2026-04-26 16:52 42.37801 19.29186 40671 ft 503 kts 138°
2026-04-26 16:52 42.35261 19.32413 40146 ft 501 kts 138°
2026-04-26 16:53 42.32727 19.35628 39585 ft 498 kts 138°
2026-04-26 16:53 42.30202 19.38827 38983 ft 498 kts 138°
2026-04-26 16:53 42.27678 19.42022 38273 ft 497 kts 138°
2026-04-26 16:53 42.25160 19.45204 37612 ft 496 kts 138°
2026-04-26 16:54 42.22642 19.48383 36950 ft 494 kts 138°
2026-04-26 16:54 42.20141 19.51538 36284 ft 492 kts 138°
2026-04-26 16:54 42.17642 19.54685 35611 ft 491 kts 138°
2026-04-26 16:54 42.15145 19.57828 34991 ft 490 kts 138°
2026-04-26 16:55 42.12667 19.60943 34466 ft 486 kts 138°
2026-04-26 16:55 42.10199 19.64042 33906 ft 483 kts 138°
2026-04-26 16:55 42.07754 19.67109 33357 ft 479 kts 138°
2026-04-26 16:55 42.05327 19.70149 32811 ft 475 kts 138°
2026-04-26 16:56 42.01021 19.76717 31853 ft 467 kts 120°
2026-04-26 16:56 41.99796 19.80736 31349 ft 462 kts 103°
2026-04-26 16:56 41.99434 19.84992 30842 ft 457 kts 86°
2026-04-26 16:57 41.99945 19.89109 30333 ft 451 kts 70°
2026-04-26 16:57 42.01118 19.93037 29773 ft 446 kts 68°
2026-04-26 16:57 42.02915 20.00950 28770 ft 438 kts 71°
2026-04-26 16:58 42.03768 20.04866 28284 ft 434 kts 72°
2026-04-26 16:58 42.04317 20.07436 27973 ft 432 kts 72°
2026-04-26 16:58 42.06197 20.16393 26825 ft 424 kts 72°
2026-04-26 16:59 42.06987 20.20204 26338 ft 421 kts 72°
2026-04-26 16:59 42.08545 20.27755 25363 ft 417 kts 72°
2026-04-26 17:00 42.10082 20.35244 24392 ft 413 kts 72°
2026-04-26 17:00 42.11600 20.42672 23351 ft 410 kts 72°
2026-04-26 17:00 42.12354 20.46367 22819 ft 407 kts 73°
2026-04-26 17:01 42.13270 20.49935 22330 ft 400 kts 62°
2026-04-26 17:01 42.14644 20.53160 21834 ft 394 kts 54°
2026-04-26 17:01 42.16127 20.56245 21330 ft 391 kts 55°
2026-04-26 17:01 42.17606 20.59299 20832 ft 387 kts 55°
2026-04-26 17:02 42.19070 20.62336 20339 ft 384 kts 55°
2026-04-26 17:02 42.20513 20.65342 19850 ft 381 kts 55°
2026-04-26 17:02 42.21947 20.68338 19354 ft 379 kts 55°
2026-04-26 17:02 42.23373 20.71321 18854 ft 376 kts 55°
2026-04-26 17:03 42.24784 20.74273 18353 ft 374 kts 55°
2026-04-26 17:03 42.26188 20.77223 17819 ft 371 kts 56°
2026-04-26 17:03 42.27575 20.80140 17321 ft 368 kts 55°
2026-04-26 17:03 42.28948 20.83031 16839 ft 364 kts 55°
2026-04-26 17:04 42.30309 20.85900 16355 ft 361 kts 56°
2026-04-26 17:04 42.31654 20.88735 15847 ft 357 kts 56°
2026-04-26 17:04 42.32988 20.91550 15389 ft 354 kts 56°
2026-04-26 17:04 42.34309 20.94338 14918 ft 351 kts 56°
2026-04-26 17:05 42.35620 20.97111 14443 ft 348 kts 56°
2026-04-26 17:05 42.36918 20.99856 13978 ft 345 kts 56°
2026-04-26 17:05 42.38204 21.02581 13478 ft 342 kts 55°
2026-04-26 17:05 42.39469 21.05265 12999 ft 337 kts 56°
2026-04-26 17:06 42.40725 21.07928 12515 ft 334 kts 56°
2026-04-26 17:06 42.41960 21.10548 12191 ft 325 kts 56°
2026-04-26 17:06 42.43150 21.13080 12064 ft 311 kts 56°
2026-04-26 17:06 42.44284 21.15496 11923 ft 298 kts 54°
2026-04-26 17:07 42.45373 21.17818 11772 ft 287 kts 54°
2026-04-26 17:07 42.46415 21.20094 11483 ft 283 kts 57°
2026-04-26 17:07 42.47071 21.22584 11174 ft 285 kts 79°
2026-04-26 17:07 42.46927 21.25254 10863 ft 288 kts 106°
2026-04-26 17:08 42.45945 21.27596 10535 ft 288 kts 133°
2026-04-26 17:08 42.44435 21.29359 10222 ft 287 kts 143°
2026-04-26 17:08 42.42828 21.30958 9890 ft 287 kts 144°
2026-04-26 17:08 42.41221 21.32549 9720 ft 285 kts 144°
2026-04-26 17:09 42.39633 21.34135 9569 ft 283 kts 143°
2026-04-26 17:09 42.38585 21.35181 9397 ft 282 kts 144°
2026-04-26 17:09 42.36215 21.36541 9017 ft 278 kts 177°
2026-04-26 17:09 42.34357 21.36090 8737 ft 271 kts 209°
2026-04-26 17:10 42.32908 21.34557 8641 ft 262 kts 229°
2026-04-26 17:10 42.31767 21.32682 8274 ft 258 kts 241°
2026-04-26 17:10 42.31150 21.30426 7705 ft 257 kts 267°
2026-04-26 17:10 42.31438 21.28101 7243 ft 252 kts 297°
2026-04-26 17:11 42.32238 21.26003 6856 ft 251 kts 302°
2026-04-26 17:11 42.33096 21.23960 6503 ft 249 kts 302°
2026-04-26 17:11 42.33953 21.21926 6077 ft 249 kts 302°
2026-04-26 17:11 42.34797 21.19913 5830 ft 243 kts 303°
2026-04-26 17:12 42.36390 21.16089 5545 ft 223 kts 302°
2026-04-26 17:12 42.37138 21.14290 5387 ft 214 kts 303°
2026-04-26 17:13 42.38555 21.10887 4966 ft 203 kts 302°
2026-04-26 17:13 42.39231 21.09263 4760 ft 199 kts 303°
2026-04-26 17:13 42.40690 21.06197 4406 ft 183 kts 326°
2026-04-26 17:14 42.41743 21.05463 4396 ft 165 kts 342°
2026-04-26 17:14 42.43978 21.04896 4261 ft 164 kts 358°
2026-04-26 17:14 42.45110 21.04775 4223 ft 160 kts 356°
2026-04-26 17:15 42.47243 21.04525 3765 ft 147 kts 358°
2026-04-26 17:15 42.48236 21.04439 3532 ft 138 kts 358°
2026-04-26 17:15 42.49144 21.04348 3332 ft 125 kts 358°
2026-04-26 17:16 42.49997 21.04267 3145 ft 121 kts 358°
2026-04-26 17:16 42.50857 21.04186 2953 ft 126 kts 358°
2026-04-26 17:16 42.51740 21.04104 2762 ft 127 kts 358°
2026-04-26 17:16 42.52616 21.04037 2586 ft 126 kts 359°
2026-04-26 17:17 42.53492 21.03941 2372 ft 127 kts 359°
2026-04-26 17:17 42.54375 21.03879 2188 ft 129 kts 357°
2026-04-26 17:17 42.55270 21.03776 1982 ft 129 kts 358°
2026-04-26 17:17 42.56155 21.03698 1812 ft 125 kts 359°
2026-04-26 17:18 42.56919 21.03626 1789 ft 80 kts 355°
2026-04-26 17:18 42.57247 21.03592 1792 ft 35 kts 356°
2026-04-26 17:18 42.57484 21.03568 1794 ft 32 kts 356°
2026-04-26 17:18 42.57705 21.03541 1789 ft 31 kts 346°
2026-04-26 17:19 42.57985 21.03355 1793 ft 12 kts 320°
2026-04-26 17:19 42.57986 21.03283 1791 ft 8 kts 221°
2026-04-26 17:19 42.57918 21.03277 1790 ft 12 kts 177°
2026-04-26 17:20 42.57822 21.03289 1791 ft 14 kts 174°
2026-04-26 17:20 42.57787 21.03294 1790 ft 16 kts 174°
2026-04-26 17:20 42.57624 21.03308 1791 ft 10 kts 177°
2026-04-26 17:20 42.57598 21.03276 1791 ft 8 kts 242°
2026-04-26 17:21 42.57551 21.03220 1790 ft 10 kts 190°
2026-04-26 17:21 42.57471 21.03226 1790 ft 13 kts 175°
2026-04-26 17:21 42.57433 21.03214 1790 ft 6 kts 224°
2026-04-26 17:21 42.57422 21.03172 1791 ft 2 kts 255°
2026-04-26 17:22 42.57418 21.03143 1791 ft 3 kts 264°
2026-04-26 17:22 42.57417 21.03132 1791 ft 0 kts 264°
2026-04-26 17:22 42.57417 21.03130 1791 ft 0 kts 265°